Albury, Australia

4:32 PM AEDT on March 24, 2017 (GMT +1100)
Albury

Weather History for YMAY - March, 2014

Change the Weather History Date:

Thursday, March 6, 2014

  Actual Average Record
Temperature  
Mean Temperature 76 °F -  
Max Temperature 91 °F - - ()
Min Temperature 61 °F - - ()
Cooling Degree Days 11    
Growing Degree Days 26 (Base 50)    
Moisture  
Dew Point 58 °F    
Average Humidity 64    
Maximum Humidity 94    
Minimum Humidity 19    
Precipitation  
Precipitation 0.00 in - - ()
Sea Level Pressure  
Sea Level Pressure 29.99 in    
Wind  
Wind Speed 2 mph ()    
Max Wind Speed 13 mph    
Max Gust Speed 20 mph    
Visibility 5.9 miles    
Events      
T = Trace of Precipitation, MM = Missing Value Source: Averaged Metar Reports

Daily Weather History Graph

Daily Weather History Graph

Search for Another Location

Airport or City:

Trip Planner

Search our weather history database for the weather conditions in past years. The results will help you decide how hot, cold, wet, or windy it might be!

Date:

Astronomy

Mar. 06, 2014 Rise Set
Actual Time 7:02 AM AEDT 7:44 PM AEDT
Civil Twilight 6:36 AM AEDT 8:10 PM AEDT
Nautical Twilight 6:05 AM AEDT 8:40 PM AEDT
Astronomical Twilight 5:34 AM AEDT 9:11 PM AEDT
Moon 12:01 PM AEDT (3/6) 10:45 PM AEDT (3/6)
Length of Visible Light 13h 33m
Length of Day
12h 41m
Waxing Crescent, 26% of the Moon is Illuminated
Mar 6
Waxing Crescent
Mar 9
First Quarter
Mar 17
Full
Mar 24
Last Quarter
Mar 31
New

Hourly Weather History & Observations

Time (AEDT) Temp. Heat Index Dew Point Humidity Pressure Visibility Wind Dir Wind Speed Gust Speed Precip Events Conditions
12:00 AM 67 °F - 62 °F 80% 29.98 in - Calm Calm - -  
12:00 AM 68.0 °F - 62.6 °F 83% 29.98 in 6.2 mi Calm Calm - N/A   Unknown
1:00 AM 66.2 °F - 62.6 °F 88% 29.98 in 4.3 mi Calm Calm - N/A   Unknown
2:00 AM 64.4 °F - 62.6 °F 94% 29.98 in 6.2 mi Calm Calm - N/A   Unknown
3:00 AM 65 °F - 62 °F 86% 29.96 in - Calm Calm - -  
3:00 AM 64.4 °F - 62.6 °F 94% 29.98 in 6.2 mi Calm Calm - N/A   Unknown
4:00 AM 62.6 °F - 60.8 °F 94% 29.98 in 6.2 mi Calm Calm - N/A   Unknown
5:00 AM 64.4 °F - 60.8 °F 88% 29.98 in 6.2 mi Calm Calm - N/A   Unknown
5:52 AM 62.6 °F - 60.8 °F 94% 29.98 in 3.7 mi Calm Calm - N/A   Unknown
6:00 AM 63 °F - 60 °F 89% 29.98 in 6 mi Calm Calm - -  
6:00 AM 62.6 °F - 60.8 °F 94% 29.98 in 5.6 mi Calm Calm - N/A   Unknown
6:03 AM 62.6 °F - 60.8 °F 94% 29.98 in 6.2 mi Calm Calm - N/A   Unknown
6:16 AM 60.8 °F - 59.0 °F 94% 29.98 in 3.7 mi Calm Calm - N/A   Unknown
6:30 AM 60.8 °F - 59.0 °F 94% 30.01 in 6.2 mi Calm Calm - N/A   Unknown
6:34 AM 60.8 °F - 59.0 °F 94% 30.01 in 6.2 mi Calm Calm - N/A   Unknown
7:00 AM 62.6 °F - 60.8 °F 94% 30.01 in 6.2 mi Calm Calm - N/A   Unknown
8:00 AM 66.2 °F - 62.6 °F 88% 30.04 in 6.2 mi NNW 1.2 mph - N/A   Mostly Cloudy
9:00 AM 71 °F - 63 °F 69% 30.04 in - ENE 1.2 mph - -  
9:00 AM 71.6 °F - 62.6 °F 73% 30.04 in 6.2 mi ENE 1.2 mph - N/A   Scattered Clouds
10:00 AM 77.0 °F - 62.6 °F 61% 30.04 in 6.2 mi NE 6.9 mph - N/A   Scattered Clouds
11:00 AM 78.8 °F - 62.6 °F 57% 30.04 in 6.2 mi North 3.5 mph - N/A   Scattered Clouds
12:00 PM 83 °F - 63 °F 41% 30.03 in - North 8.1 mph - -  
12:00 PM 82.4 °F 83.4 °F 62.6 °F 51% 30.04 in 6.2 mi North 8.1 mph - N/A   Mostly Cloudy
1:00 PM 84.2 °F 85.0 °F 62.6 °F 48% 30.01 in 6.2 mi North 10.4 mph - N/A   Mostly Cloudy
2:00 PM 86.0 °F 86.1 °F 60.8 °F 43% 29.98 in 6.2 mi NNW 10.4 mph - N/A   Scattered Clouds
3:00 PM 91 °F - 59 °F 24% 29.96 in - NNW 11.5 mph - -  
3:00 PM 91.4 °F 90.7 °F 59.0 °F 34% 29.95 in 6.2 mi NNW 11.5 mph - N/A   Scattered Clouds
4:00 PM 86.0 °F 84.9 °F 57.2 °F 37% 29.95 in 6.2 mi West 11.5 mph - N/A   Scattered Clouds
5:00 PM 87.8 °F 85.7 °F 53.6 °F 31% 29.92 in 6.2 mi WSW 6.9 mph 19.6 mph N/A   Unknown
6:00 PM 87 °F - 51 °F 19% 29.94 in - WNW 12.7 mph - -  
6:00 PM 87.8 °F - 51.8 °F 29% 29.95 in 6.2 mi WNW 12.7 mph - N/A   Unknown
7:00 PM 84.2 °F - 51.8 °F 33% 29.95 in 6.2 mi WNW 12.7 mph - N/A   Unknown
8:00 PM 78.8 °F - 48.2 °F 34% 29.98 in 6.2 mi WNW 10.4 mph - N/A   Unknown
9:00 PM 75 °F - 46 °F 25% 29.99 in - NW 3.5 mph - -  
9:00 PM 75.2 °F - 46.4 °F 36% 30.01 in 6.2 mi NW 3.5 mph - N/A   Unknown
10:00 PM 73.4 °F - 44.6 °F 36% 30.01 in 6.2 mi West 5.8 mph - N/A   Unknown
11:00 PM 66.2 °F - 48.2 °F 52% 30.04 in 6.2 mi Calm Calm - N/A   Unknown